Regional Weather Roundup
Issued by NWS Wakefield, VA

Home | Current Version | Previous Version | Graphics & Text | Print | Product List | Glossary On
Versions: 1 2 3 4 5 6 7 8 9 10 11 12 13 14 15 16 17 18 19 20 21 22 23 24 25 26 27
000
ASUS41 KAKQ 221815
RWRAKQ

REGIONAL WEATHER ROUNDUP
NATIONAL WEATHER SERVICE WAKEFIELD VA
200 PM EDT FRI SEP 22 2017

Note: "fair" indicates few or no clouds below 12,000 feet with no
significant weather and/or obstructions to visibility. * = Denotes
station may not report precipitation (e.g., rain,snow,etc.),
thunder or fog.

VAZ042-051-052>054-056-221900-
NORTHERN VIRGINIA

CITY           SKY/WX    TMP DP  RH WIND       PRES   REMARKS
WASH NATIONAL  CLOUDY    83  67  58 NW10      30.03F
DULLES         CLOUDY    82  62  50 N12       30.04F
FORT BELVOIR   CLOUDY    82  64  53 NW9       30.03F
QUANTICO       CLOUDY    82  65  56 NW7       30.04F
FREDERICKSBRG* MOSUNNY   83  66  55 NW6       30.03F
STAFFORD*      CLOUDY    81  63  54 N7        30.08F
WARRENTON      CLOUDY    85  60  41 N10       30.05F
CULPEPER*      PTSUNNY   84  66  54 N5        30.05F
MANASSAS*      MOSUNNY   83  65  54 VRB6      30.04F
LEESBURG*      CLOUDY    82  66  57 N6        30.06F
WINCHESTER     CLOUDY    79  63  57 N3        30.06F
FRONT ROYAL*   CLOUDY    81  63  54 CALM      30.06F
LURAY*         PTCLDY    84  61  45 CALM      30.07F
$$

VAZ048-049-060>072-079>083-221900-
CENTRAL AND SOUTH CENTRAL VIRGINIA

CITY           SKY/WX    TMP DP  RH WIND       PRES   REMARKS
RICHMOND       PTSUNNY   82  66  58 NE10      30.03F
CHESTERFIELD*  NOT AVBL
PETERSBURG*    MOSUNNY   84  63  48 N9        30.04F
HANOVER        MOSUNNY   81  66  60 VRB5      30.05F
TAPPAHANNOCK*  MOSUNNY   84  54  36 N7        30.04F
QUINTON*       FAIR      79  67  68 N6        30.03F
CHARLOTTSVILLE PTSUNNY   85  64  49 CALM      30.05F
GORDONSVILLE*  PTCLDY    84  66  55 NE6       30.05F
ORANGE*        PTSUNNY   81  64  57 NW5       30.05F
LOUISA*        MOSUNNY   82  64  54 CALM      30.05F
BUMPASS*       FAIR      80  68  67 CALM      30.05F
FARMVILLE*     PTSUNNY   88  63  43 N6        30.04F
CREWE*         FAIR      83  65  53 N3        30.05F
FORT PICKETT*  FAIR      85  64  47 N8        30.05F
CHASE CITY*    FAIR      85  65  50 NW5       30.04F
CLARKSVILLE*   FAIR      84  64  51 NW6       30.04F
SOUTH HILL*    MOSUNNY   85  66  52 CALM      30.09F
LAWRENCEVILLE* FAIR      85  63  48 N8        30.04F
EMPORIA*       MOSUNNY   84  64  51 CALM      30.04F
$$

VAZ088>098-221900-
SOUTHEAST VIRGINIA

CITY           SKY/WX    TMP DP  RH WIND       PRES   REMARKS
NORFOLK        CLOUDY    78  68  71 N15       30.02R
VIRGINIA BEACH CLOUDY    79  66  64 N10       30.01S
NORFOLK NAVAL  CLOUDY    79  66  64 NE13      30.03S
WEST POINT*    CLOUDY    81  64  57 N3        30.03F
SALUDA*        FAIR      77  70  78 W3        30.02F
NEWPORT NEWS   CLOUDY    80  69  69 NE6       30.02S
LANGLEY AFB    PTSUNNY   78  69  73 NE12      30.02S
FORT EUSTIS    CLOUDY    87  68  53 N7        29.99F
WILLIAMSBURG*  PTSUNNY   84  70  61 N6        30.03S
HR EXEC AP*    FAIR      83  69  62 VRB5      30.02F
FRANKLIN*      SUNNY     85  66  52 NW5       30.01F
US460-WAKEFLD  SUNNY     84  65  52 NW7       30.02F
$$

VAZ020-022-025-037-045-221900-
WEST CENTRAL AND SOUTHWEST VIRGINIA

CITY           SKY/WX    TMP DP  RH WIND       PRES   REMARKS
STAUNTON*      PTSUNNY   82  60  47 CALM      30.11F
WAYNESBORO*    CLOUDY    81  61  50 N5        30.11F
HOT SPRINGS VA SUNNY     75  51  42 NE7       30.24S
LYNCHBURG      CLOUDY    83  61  47 VRB5      30.08F
DANVILLE       PTSUNNY   84  67  56 VRB5      30.06F
SOUTH BOSTON*  FAIR      85  66  52 CALM      30.05F
MARTINSVILLE   PTSUNNY   82  64  55 CALM      30.10F
ROANOKE        MOSUNNY   85  62  46 VRB3      30.10F
BLACKSBURG     LGT RAIN  76  65  70 W8G16     30.17F
DUBLIN*        MOSUNNY   82  64  54 CALM      30.15F
MARION*        MOSUNNY   82  58  44 CALM      30.18F
HILLSVILLE*    SUNNY     77  57  49 CALM      30.17F
RICHLANDS*     FAIR      80  58  46 NW6       30.17F
WISE*          SUNNY     81  55  41 NE9       30.19S
ABINGDON*      MOSUNNY   84  62  46 SE3       30.14F
$$

MDZ021>025-VAZ099-100-221900-
SOUTHERN MARYLAND AND THE DELMARVA PENINSULA

CITY           SKY/WX    TMP DP  RH WIND       PRES   REMARKS
PATUXENT RIVER CLOUDY    81  65  58 N8        30.02F
BAY BRIDGE APT CLOUDY    77  68  73 CALM      30.03F
LEONARDTOWN    CLOUDY    79  64  61 NW7       30.04F
DOVER          PTSUNNY   79  57  47 NW12      29.98F
GEORGETOWN     CLOUDY    78  60  53 NW8       30.00F
EASTON         CLOUDY    77  64  65 N8        30.05F
CAMBRIDGE      SUNNY     77  64  65 NW10      30.02F
SALISBURY      CLOUDY    81  63  54 NW13G21   29.99F
OCEAN CITY     MOSUNNY   77  58  51 NW3       29.99F
WALLOPS ISLAND CLOUDY    80  64  58 NW12      30.00F
ACCOMACK*      CLOUDY    76  64  65 NW7       30.01F
$$

NCZ012>017-030>032-221900-
NORTH CENTRAL AND EASTERN NORTH CAROLINA

CITY           SKY/WX    TMP DP  RH WIND       PRES   REMARKS
ROANOKE RAPIDS FAIR      84  64  51 N6        30.04S
RALEIGH        MOSUNNY   84  63  49 NE8       30.05F
ELIZABETH CITY MOSUNNY   86  69  56 N12       30.00F
AHOSKIE*       MOSUNNY   83  66  56 CALM      30.03F
EDENTON*       MOSUNNY   86  68  53 CALM      30.02F
CURRITUCK*     MOSUNNY   84  66  54 NW6       30.01F
KILL DEVIL HLS SUNNY     80  66  62 CALM      30.00F
MANTEO         SUNNY     82  67  60 NW7       30.02F
CAPE HATTERAS  SUNNY     84  68  58 W5        30.03F
TARBORO*       NOT AVBL
GOLDSBORO      SUNNY     86  65  50 N6        30.02F
WASHINGTON     SUNNY     86  66  50 CALM      30.03F
GREENVILLE     SUNNY     84  64  51 N7        30.05F
NEW BERN       SUNNY     85  66  53 VRB5      30.04F
WILMINGTON     PTSUNNY   85  69  58 E7        30.03F
$$

VAZ048-221900-
ELSEWHERE

CITY           SKY/WX    TMP DP  RH WIND       PRES   REMARKS
HARRISBURG PA  MOSUNNY   83  61  47 N9        30.03F
BALTIMORE      CLOUDY    80  67  64 NW8       30.02F
ANNAPOLIS      CLOUDY    82  68  62 NW5       30.02F
ANDREWS AFB    CLOUDY    81  60  50 NW12      30.02F
PHILADELPHIA   CLOUDY    80  55  42 NW10      29.99F
HENDERSON NC   SUNNY     82  60  48 N6        30.06F
GREENSBORO     PTSUNNY   86  64  47 VRB5      30.07F
ROCKY MOUNT    SUNNY     87  66  49 NE7       30.04F
$$

VAZ100-221900-
MARINE

STATION/POSITION TIME  TEMP    WIND        PRES    WAVE   SWELL
                       AIR SEA DIR/SP/G            HT/PER HT/PER
                 (UTC) (F)     (DEG/KT/KT) (MB)    (FT/S) (FT/S)
BRANDYWINE LGT   1742   74     340/ 14/ 16 1015.7F
CAPE MAY NJ      1748   75 74  290/  2/ 11 1014.7F
LEWES DE         1742   74 74  330/ 15/ 18 1015.2F
15NM E FENWICK I 1750   73 71  330/ 14/ 16 1015.3F   7/11   5/11
OCEAN-CITY-INLET 1742   76 74   20/ 10/ 13 1015.9F
WACHAPREAGUE VA  1742   78 76  320/  3/  6 1016.3F
THOMAS POINT MD  1800   75 76   60/  3/  3   N/A
GOOSES REEF MD   1800   76 76   40/  4/  4 1017.2    4
COVE POINT MD    1742   75      10/  3/  5 1017.4F
SOLOMONS ISLAND  1742   78 77  320/  6/ 10 1016.3F
BISHOPS HEAD MD  1742   76 77  290/ 11/ 12 1016.8F
PINEY POINT MD   1742          320/  8/  9   N/A
POTOMAC MD       1800   76 76  310/  2/  4 1016.0    0
CAMBRIDGE MD     1742   80 77              1017.5F
LEWISETTA VA     1742   78 77  320/  6/  7 1016.6F
RAPPAHANNOCK LGT 1742          340/  7/  7 1017.1F
STINGRAY PT      1800   76 76   90/  8/ 10 1017.0    1/ 3
YORK RVR RNG VA  1742   76      60/  9/ 12 1017.2F
YORKTOWN VA      1742   77 77   30/  7/  9 1016.3F
JAMESTOWN VA     1800      78  330/  8/ 10   N/A     0
DOMINION TERM VA 1742   80      70/  4/  9 1016.6S
KIPTOPEKE VA     1742      75   10/  5/  7   N/A
CHES BAY BRIDGE  1742   75 75   10/ 13/ 14 1016.5S
CAPE HENRY VA    1742   75     350/ 12/ 14   N/A
WILLOUBY STN VA  1742   76      30/ 15/ 17 1016.7R
S CRANEY ISL VA  1742   77      40/ 16/ 17 1016.2F
CAPE HENRY BUOY  1800      75                N/A     5/12   3/12
1ST LANDING BUOY 1800   75 76              1016.4    2/ 4
64NM E OF VA BCH 1750   72 71  320/  8/ 10 1016.3F   9/12   8/12
DUCK PIER NC     1742   80 76   10/  6/  9 1015.7F
44100 DUCK FRF   1735      75                N/A     7/13   5/13
44056 DUCK FRF   1800      77                N/A     6/13   3/13
OREGON INLET NC  1742   81 78  310/  8/  9 1016.3F
HATTERAS NC      1742   80 78  290/  2/  4 1017.0F
DIAMOND SHLS NC  1750   77 78  310/  4/  6 1016.9F   6/11   7/11
CAPE LOOKOUT NC  1800   82     170/  5/  6 1016.4F
$$




USA.gov is the U.S. government's official web portal to all federal, state and local government web resources and services.